Погода Николо-Полома

Погода Николо-Полома : погода сейчас, прогноз погоды и архив. Всё, что Вы хотите узнать о погоде Николо-Полома!

Поиск расширенной информации на нашем сайте:

Другие новости

Новости СМИ2

Главная страница сайта

Новости сайта

03.07.2017

Напоминаем, что на нашем специализированном сайте Метеоцентр.Азия вы можете получить высокодетализированные автоматические прогнозы погоды по пунктам России, СНГ и мира в авиационном формате (включающие направление и скорость ветра, видимость, явления погоды, количество и форму облачности, нижнюю и верхнюю границу облачности).

Рекомендуем: Туалетная Бумага

Погода Николо-Полома - сегодня

Время (UTC), дата Ветер
(°,м/с) 
Видим.   Явления Облачность Т
(°С)
Тd
(°С)
f(%) Тe
(°С)
Pmin
(гПа)
dP
(гПа)
Po
(мм)
O2
(г/м3)
Тmin Tmax R s Состояние
почвы
09 21.09.18 270 (З) 50000 м    3/1 600 м верхняя 
[Cu hum|Ci fib]
+20.5 +13.4 64 +27  1014.9  0.1  748  278           
12 21.09.18 300 (СЗ) 50000 м    3/1 600 м верхняя 
[Cu med, cong|Ci fib]
+22.3 +12.9 55 +28  1015  0.2  748  276           
18 21.09.18 240 (ЮЗ) 10 км    3/0 средняя 
[Ac trans]
+15.5 +13.8 90 +23  1016.3  0.4  749  283           
21 21.09.18 270 (З) 4000 м  дымка  4/0 верхняя 
[Cs]
+15.3 +14.2 93 +24  1016.9  0.5  749  283           
03 22.09.18 220 (ЮЗ) 0500 м  туман  10/10 300 м 
[St]
+13.4 +12.9 97 +19  1017.2  0.1  749  285  +13.3      влажная 
06 22.09.18 230 (ЮЗ) 15000 м  {туман}  ясно 
+16.7 +14.5 87 +26  1016.8  0.1  749  282           
09 22.09.18 230 (ЮЗ) 50000 м    1/0 верхняя 
[Ci sp]
+22.3 +14.4 61 +30  1015.8  -0.7  749  276           
12 22.09.18 210 (ЮЗ) 50000 м    1/1 600 м 
[Cu hum]
+23.5 +11.3 46 +26  1014.5  -1.2  748  275           
15 22.09.18 170 (Ю) 50000 м    ясно 
+19.5 +12.2 63 +25  1013.5  -1.2  747  279    +23.6       
18 22.09.18 200 (Ю) 20000 м    ясно 
+16.6 +12.7 78 +22  1012.7  -0.9  746  281           
21 22.09.18 200 (Ю) 20000 м    ясно 
+14.4 +11.9 85 +19  1011.6  -1.2  745  283           
00 23.09.18 190 (Ю) 20000 м    ясно 
+13.2 +11.3 88 +17  1010.2  -1.5  744  284           
03 23.09.18 180 (Ю) 9000 м  дымка  4/0 средняя, верхняя 
[Ac trans|Ci fib]
+12.8 +11.4 91 +16  1008.8  -1.5  743  284  +12.7        влажная 
06 23.09.18 180 (Ю) 50000 м    3/3 600 м верхняя 
[Cu med, cong|Ci fib]
+16.4 +11.7 74 +21  1006.7  -1.8  742  280           
15 23.09.18 280 (З) 4{13}  15000 м  в посл. час гроза{ливн. осадки}  9/8 300 м кучево-дожд., средняя 
[Cb calv|Ac trans]
+12.6 +10.8 89 +14  1004.5  1.1  740  283    +23     
18 23.09.18 280 (З) 4000 м  слаб. дождь{гроза, ливн. осадки}  10/8 300 м средняя 
[Frnb|As op]
+9.5 +8.6 94 +10  1007.2  2.4  742  287           
21 23.09.18 250 (З) 4000 м  дымка{дождь}  10/10 300 м 
[Cu hum]
+8.5 +7.7 95 +9  1008  0.8  743  289           
03 24.09.18 220 (ЮЗ) 9000 м  дымка  10/10 300 м 
[Cu hum]
+8.5 +7.9 96 +10  1007.8  0.1  742  289  +7.8    0.7    влажная 
06 24.09.18 230 (ЮЗ) 9000 м  дымка  10/10 300 м 
[Cu hum]
+9 +7.5 90 +9  1008.4  0.6  743  288           
09 24.09.18 220 (ЮЗ) 50000 м    6/6 600 м кучево-дожд. 
[Cb calv]
+13.2 +6.6 64 +13  1008.7  0.5  743  285           
12 24.09.18 250 (З) 50000 м    8/6 600 м кучево-дожд., верхняя 
[Cb calv|Ci fib]
+13.6 +5.6 58 +15  1008.7  0.1  743  284           
18 24.09.18 160 (Ю) 20000 м    10/0 средняя 
[Ac As]
+9.4 +6.5 82 +9  1007.9  -1  742  288           
21 24.09.18 140 (ЮВ) 20000 м    10/0 средняя 
[Ac As]
+9.5 +7.4 87 +10  1006.5  -1.3  741  287           
03 25.09.18 140 (ЮВ) 9000 м  слаб. дождь  10/8 300 м средняя 
[Frnb|As op]
+8.3 +7.1 92 +7  1000.2  -3.5  737  287  +8.2      мокрая 
09 25.09.18 170 (Ю) 9000 м  слаб. дождь  10/8 300 м средняя 
[Frnb|As op]
+9.6 +8.9 95 +10  997.3  -0.5  735  284           
Время (UTC), дата Ветер
(°,м/с) 
Видим.   Явления Облачность Т
(°С)
Тd
(°С)
f(%) Тe
(°С)
Pmin
(гПа)
dP
(гПа)
Po
(мм)
O2
(г/м3)
Тmin Tmax R s Состояние
почвы

Для получения пояснительной информации подведите курсор к названию столбца.

ПОГОДА Николо-Полома - архив

Всё, что Вы хотите узнать о погоде Николо-Полома - удобно и подробно!

Выберите нужную дату (начиная с 1 января 2015* года) и нажмите кнопку "Найти".
Будут отображены архивные сводки погоды по пункту Николо-Полома, начиная с указанной даты.


Отображать данные в формате CSV (для использования в таблицах Excel)


Внимание! Наш архив погоды предназначен исключительно для личного некоммерческого использования в познавательных целях. Если Вам необходимы официальные справки о состоянии погоды (для производственных, юридических, коммерческих и т.п. целей), обращайтесь в органы Росгидромета.

*Примечание: данная дата относится к архиву по метеостанциям СССР (Россия, СНГ, Балтия).
Архив по метеостанциям Зарубежной Европы и Азии (кроме Китая) хранится 10 дней, по другим регионам земного шара (Китай, Африка, Америка, Австралия, Океания) - 1 день.

Николо-Полома - район местоположения метеостанции


Название, широта, долгота, высота метеостанции:
Николо-Полома 58.3°ш. 43.4°д. 150 м над ур. моря [Российская Федерация]

Дополнительная информация

В oтличие oт бoльшинства пoгoдных сайтoв мы публикуем пoдрoбную метеoинфoрмацию в детальнoм прoфессиoнальнoм фoрмате.

Характеристики температуры и влажнoсти вoздуха измеряются на высoте 2 м в тени вдали oт зданий и деревьев.
Скoрoсть ветра измеряется на высoте 10 м (на урoвне рoста челoвека скoрoсть ветра ниже в 1.5-2 раза). Если метеoстанция нахoдится в гoрoде или в лесу, тo скoрoсть ветра занижена на 2-4 м/с пo сравнению с oткрытым местoм. Скoрoсть ветра над акватoриями крупных рек и oзёр, а также на вершинах хoлмoв на 2-5 м/с выше, чем в oбычных услoвиях.
Атмoсфернoе давление в разных тoчках местнoсти мoжет значительнo oтличаться oт давления на метеoстанции, в зависимoсти oт услoвий рельефа (при пoдъёме на 10 м давление пoнижается примернo на 1 мм рт.ст.).